Home > Weather > Kulmbach > Past weeks

Flag for Germany Weather for the Past 2 Weeks in Kulmbach, Bavaria, Germany

Now
57 °F

Passing clouds.


Feels Like: 54 °F
Forecast: 39 / 60 °F
Wind: 14 mph from Northeast

Location: Hof Airport

Current Time: May 2, 2016 at 1:18:15 PM

Latest Report: May 2, 2016 at 12:50 PM


Visibility: N/A

Pressure: 30.18 "Hg

Humidity: 51%

Dew Point: 39 °F

Location of KulmbachLocation

Historic Weather in Kulmbach — Graph

°F

Kulmbach Temperature Yesterday

Maximum temperature yesterday: 55 °F (at 1:50 PM)
Minimum temperature yesterday: 43 °F (at 8:50 AM)
Average temperature yesterday: 53 °F

High & Low Weather Summary for the Past Weeks

 TemperatureHumidityPressure
High63 °F (Apr 30, 2:50 PM)93% (Apr 18, 6:20 AM)30.39 "Hg (Apr 18, 6:20 AM)
Low30 °F (Apr 25, 6:50 AM)20% (Apr 21, 2:20 PM)29.45 "Hg (Apr 26, 6:20 AM)
Average44 °F62%29.98 "Hg
* Reported Apr 17 11:20 AM — May 2 11:50 AM, Kulmbach, Weather by CustomWeather, © 2016

Note: Actual official high and low records may vary slightly from our data, if they occured in-between our weather recording intervals... More about our weather records

Advertising

Kulmbach Weather History for the Previous 24 Hours

Scroll right to see more
 ConditionsComfort  
Time TempWeatherWind HumidityBarometerVisibility
11:50 AM
Mon, May 2
54 °FPassing clouds.15 mph54%30.21 "HgN/A
11:20 AM55 °FPassing clouds.16 mph51%30.21 "HgN/A
10:50 AM54 °FPassing clouds.13 mph54%30.21 "HgN/A
10:20 AM52 °FPassing clouds.13 mph54%30.21 "HgN/A
9:50 AM52 °FSunny.12 mph58%30.21 "Hg10 mi
9:20 AM50 °FSunny.9 mph62%30.21 "Hg10 mi
8:50 AM46 °FSunny.9 mph71%30.21 "Hg10 mi
8:20 AM45 °FSunny.9 mph71%30.21 "Hg10 mi
6:50 AM41 °FSunny.2 mph76%30.21 "Hg10 mi
5:50 PM
Sun, May 1
54 °FSunny.20 mph51%30.15 "Hg10 mi
5:20 PM55 °FPassing clouds.17 mph55%30.15 "HgN/A
4:50 PM55 °FSunny.17 mph55%30.12 "Hg10 mi
4:20 PM55 °FSunny.17 mph55%30.12 "Hg10 mi
3:50 PM55 °FPassing clouds.16 mph55%30.12 "HgN/A
3:20 PM55 °FPassing clouds.17 mph55%30.12 "HgN/A
2:50 PM55 °FSunny.18 mph55%30.12 "Hg10 mi
2:20 PM55 °FSunny.18 mph55%30.12 "Hg10 mi
1:50 PM55 °FPassing clouds.20 mph59%30.12 "HgN/A
1:20 PM54 °FSunny.17 mph58%30.12 "Hg10 mi
Weather by CustomWeather, © 2016

See weather overviewHow to use our weather pages